Location: Athabasca
(54.7194°N, 113.2858°W)
Time: 10:18:32
(UTC+00:00)

PRISM - Pass Details

Date: 02 December 2023
Orbit: 515 x 532 km, 98.2° (Epoch: 04 March)

Event Time Altitude Azimuth Distance (km) Brightness Sun altitude
Exits shadow 00:28:38 11° 38° (NE) 1,748 ? -10.4°
Drops below altitude 10° 00:29:15 10° 29° (NNE) 1,828 ? -10.4°
Sets 00:32:36 0° 358° (N) 2,719 ? -10.9°
